Location: Mayfield
(41.5520°N, 81.4393°W)
Time: 13:23:44
(UTC+00:00)

Daily predictions for brighter satellites

Satellite Brightness Start Highest point End
(mag) Time Altitude Azimuth Time Altitude Azimuth Time Altitude Azimuth
Cosmos 1743 2.3 12:02:03 10° S 12:05:16 87° ESE 12:08:32 10° N
USA 267 4.0 12:00:43 10° NE 12:07:10 58° SE 12:13:34 10° SSW
IRIDIUM 103 4.5 12:04:18 10° SSW 12:09:24 55° W 12:14:32 10° N
Cosmos 2219 Rocket 3.0 12:04:22 10° NNW 12:09:55 53° ENE 12:15:24 10° SE
Cosmos 1814 Rocket 4.1 12:05:51 10° SSW 12:10:59 59° WNW 12:16:13 10° NNE
IRS-1C 4.3 12:05:51 10° NNE 12:11:12 85° ESE 12:16:31 10° SSW
Cosmos 2322 Rocket 2.2 12:06:17 10° NNW 12:12:00 79° WSW 12:17:39 10° SSE
CBERS-1 4.4 12:07:17 10° N 12:12:02 40° WNW 12:16:44 10° SW
MOS 1 Rocket 4.3 22:22:42 10° ESE 22:26:39 26° ENE 22:30:47 10° NNE
Cosmos 405 Rocket 2.5 22:24:43 10° N 22:27:53 47° ENE 22:30:59 10° SSE
Cosmos 2279 Rocket 4.0 22:26:36 10° S 22:32:44 70° E 22:38:55 10° NNE
YAOGAN 1 4.3 22:32:33 10° E 22:33:53 11° ENE 22:35:14 10° NE
Cosmos 1356 Rocket 4.2 22:30:45 10° SSW 22:34:40 53° WNW 22:38:41 10° N
Cosmos 1092 Rocket 4.4 22:32:27 10° NNW 22:38:34 67° W 22:44:37 10° S
SJ-12 4.3 22:35:57 10° SE 22:39:22 35° ENE 22:42:50 10° N
Cosmos 1570 Rocket 4.0 22:35:20 10° NNW 22:40:40 69° ENE 22:45:57 10° SSE
Cosmos 1980 Rocket 4.0 22:39:52 10° ESE 22:41:31 11° E 22:43:08 10° E
Cosmos 1933 4.5 22:38:35 10° SE 22:41:32 21° E 22:44:29 10° NE
Cosmos 2180 Rocket 4.5 22:40:09 10° S 22:46:09 62° E 22:52:13 10° NNE
Cosmos 836 Rocket 4.4 22:43:06 10° NNW 22:48:21 72° ENE 22:53:36 10° SSE
Cosmos 1486 Rocket 4.0 22:44:02 10° S 22:49:11 72° ESE 22:54:24 10° NNE
Cosmos 2228 4.1 22:46:08 10° SSW 22:50:11 45° WNW 22:54:17 10° N
CZ-4C R/B 3.4 22:44:55 10° NNW 22:51:25 39° NE 22:59:15 10° ESE
IRIDIUM 106 4.4 22:52:12 10° N 22:57:21 57° E 23:02:28 10° SSE
Cosmos 1825 Rocket 4.5 22:54:09 10° NNE 22:57:49 26° ENE 23:01:26 10° SE
Cosmos 2263 Rocket 3.7 22:54:41 10° NNE 22:57:57 15° NE 22:58:58 15° ENE
Cosmos 2098 Rocket 2.8 22:54:36 10° S 22:58:20 88° WNW 23:02:47 10° N
Cosmos 1758 Rocket 3.5 22:54:55 10° N 22:59:15 88° WSW 23:03:31 10° S
USA 290 2.8 22:57:04 10° N 23:00:05 34° ENE 23:03:04 10° SE
Cosmos 2360 4.2 22:54:34 10° SSW 23:00:16 87° ESE 23:06:03 10° NNE
CORIOLIS 4.3 22:55:34 10° S 23:00:54 79° WSW 23:06:16 10° NNW
CZ-2D R/B 2.6 23:01:11 10° SSE 23:04:18 76° ENE 23:07:26 10° N
Helios 1A Rocket 4.4 23:05:51 14° ESE 23:05:51 14° ESE 23:07:06 10° SE
Cosmos 773 Rocket 3.9 23:00:13 10° NNW 23:05:27 81° ENE 23:10:41 10° SSE
ARIANE 5 R/B 2.5 23:02:08 10° SSE 23:07:10 87° ENE 23:12:17 10° NNW
Cosmos 2227 Rocket 3.0 23:03:05 10° N 23:07:56 28° NE 23:12:44 10° ESE
AQUARIUS 4.0 23:06:11 10° SSE 23:10:33 72° ENE 23:14:58 10° N
SPOT 1/Viking Rocket 3.8 23:06:09 10° SE 23:11:03 44° ENE 23:15:59 10° N
Cosmos 2266 Rocket 3.9 23:06:34 10° N 23:12:43 69° E 23:18:43 10° SSE
Cosmos 1607 4.0 23:07:14 10° NNW 23:13:22 56° NE 23:19:33 10° SE
Cosmos 2208 Rocket 4.0 23:09:42 10° NNW 23:14:53 83° WSW 23:20:04 10° SSE
CENTAUR R/B 4.2 23:10:35 10° W 23:15:20 24° NNW 23:21:00 10° NNE
SL-16 R/B 4.1 23:10:07 10° N 23:15:36 34° WNW 23:21:05 10° SW
Cosmos 990 Rocket 4.2 23:11:39 10° S 23:16:30 46° ESE 23:20:05 18° NE
USA 238 DEB 4.3 23:13:17 10° S 23:18:20 29° ESE 23:20:47 22° ENE
USA 238 4.3 23:13:25 10° SSE 23:18:27 29° ESE 23:20:51 22° ENE
ATLAS CENTAUR R/B 0.5 23:15:45 10° NNW 23:18:57 66° NE 23:21:23 15° SE
Cosmos 1743 2.8 23:16:58 10° NNW 23:20:11 60° W 23:23:22 10° S
BlueWalker 3 1.6 23:18:32 10° NW 23:22:10 73° NE 23:24:06 26° ESE
NOSS 2-3 (C) 4.2 23:19:42 10° S 23:22:39 25° ESE 23:22:41 25° ESE
Cosmos 1697 Rocket 2.7 23:17:24 10° S 23:22:54 62° ESE 23:27:10 17° NNE
SMAP 4.3 23:21:44 10° S 23:26:09 43° W 23:30:36 10° NNW
SAR-Lupe-3 4.1 23:26:08 27° N 23:27:15 59° WNW 23:29:44 10° SSW
Cosmos 1606 Rocket 3.4 23:24:01 10° S 23:28:23 75° E 23:32:48 10° NNE
Cosmos 2151 3.2 23:24:28 10° NNW 23:28:36 70° W 23:32:43 10° S
USA 215 4.4 23:26:29 19° NE 23:29:13 25° NNE 23:34:21 10° NW
Cosmos 1461 2.8 23:26:10 10° SW 23:30:02 74° WNW 23:32:06 27° NNE
Gbstr 26 Del rocket 2.6 23:26:22 10° SW 23:30:27 72° SE 23:31:38 41° ENE
Meteor 1-20 Rocket 4.2 23:28:02 10° NNW 23:33:31 80° W 23:38:58 10° S
Resurs 1-3 3.7 23:31:58 10° SE 23:36:05 47° ENE 23:40:13 10° N
Cosmos 1076 Rocket 3.8 23:32:56 10° N 23:37:02 42° ENE 23:41:08 10° SSE
Okean 1-7 Rocket 3.7 23:37:13 10° NNW 23:41:36 74° W 23:45:56 10° S
Lacrosse 5 rocket 3.7 23:41:41 10° NNW 23:41:57 10° NNW 23:42:13 10° NNW
Cosmos 783 Rocket 4.4 23:36:41 10° NNW 23:42:01 78° ENE 23:47:17 10° SSE
PSLV R/B 4.4 23:48:10 10° SSE 23:53:51 32° N 23:56:07 10° N
Cosmos 1726 Rocket 3.8 23:50:12 10° SSW 23:54:50 78° W 23:58:20 18° N
SKYMED 2 4.1 23:51:59 13° N 23:55:42 59° WNW 23:59:58 10° SSW
COSMO-SKYMED 1 2.3 23:54:33 42° NNE 23:55:53 89° W 00:00:00 10° SSW
